Home > Weather > Greater Sudbury > Past weeks

Flag for Canada Past Weather in Greater Sudbury, Ontario, Canada — Yesterday and Last 2 Weeks

Now
75 °F

Partly sunny.


Feels Like: 78 °F
Forecast: 63 / 79 °F
Wind: 8 mph from Northwest

Location: Sudbury

Current Time: Jul 28, 2016 at 4:23:59 PM

Latest Report: Jul 28, 2016 at 3:00 PM


Visibility: 20 mi

Pressure: 29.98 "Hg

Humidity: 41%

Dew Point: 50 °F

Location of Greater SudburyLocation

Past Weather in Greater Sudbury — Graph

°F

Greater Sudbury Temperature Yesterday

Maximum temperature yesterday: 81 °F (at 4:00 PM)
Minimum temperature yesterday: 63 °F (at 6:00 AM)
Average temperature yesterday: 72 °F

High & Low Weather Summary for the Past Weeks

 TemperatureHumidityPressure
High90 °F (Jul 22, 4:00 PM)100% (Jul 15, 4:48 AM)30.25 "Hg (Jul 15, 4:48 AM)
Low43 °F (Jul 16, 6:00 AM)31% (Jul 22, 4:00 PM)29.58 "Hg (Jul 14, 1:00 PM)
Average68 °F73%29.93 "Hg
* Reported Jul 13 3:00 PM — Jul 28 3:00 PM, Greater Sudbury, Weather by CustomWeather, © 2016

Note: Actual official high and low records may vary slightly from our data, if they occured in-between our weather recording intervals... More about our weather records

Advertising

Greater Sudbury Weather History for the Previous 24 Hours

Scroll right to see more
 ConditionsComfort  
Time TempWeatherWind HumidityBarometerVisibility
3:00 PM
Thu, Jul 28
75 °FPartly sunny.8 mph41%29.98 "Hg20 mi
2:00 PM77 °FPartly sunny.10 mph42%29.98 "Hg20 mi
1:00 PM73 °FPartly sunny.7 mph50%29.99 "Hg20 mi
12:00 PM72 °FBroken clouds.2 mph53%30.00 "Hg20 mi
11:00 AM70 °FPartly sunny.7 mph60%30.01 "Hg20 mi
10:00 AM66 °FPartly sunny.13 mph68%30.01 "Hg20 mi
9:00 AM64 °FPartly sunny.9 mph73%30.01 "Hg20 mi
8:00 AM64 °FBroken clouds.10 mph78%30.00 "Hg20 mi
7:00 AM61 °FBroken clouds.8 mph83%29.99 "Hg20 mi
6:00 AM61 °FPartly cloudy.8 mph83%29.97 "Hg20 mi
5:00 AM63 °FPartly cloudy.6 mph83%29.96 "Hg15 mi
4:00 AM63 °FPassing clouds.5 mph83%29.95 "Hg15 mi
3:00 AM64 °FMostly cloudy.5 mph78%29.96 "Hg15 mi
2:00 AM66 °FPassing clouds.6 mph73%29.95 "Hg15 mi
1:00 AM68 °FMostly cloudy.7 mph69%29.95 "Hg15 mi
12:00 AM68 °FPassing clouds.5 mph69%29.93 "Hg15 mi
11:00 PM
Wed, Jul 27
68 °FPassing clouds.7 mph69%29.92 "Hg15 mi
10:00 PM70 °FPassing clouds.8 mph64%29.93 "Hg15 mi
9:00 PM72 °FPartly sunny.5 mph61%29.92 "Hg20 mi
8:00 PM73 °FBroken clouds.7 mph61%29.91 "Hg20 mi
7:00 PM79 °FBroken clouds.7 mph48%29.91 "Hg20 mi
6:00 PM81 °FPartly sunny.7 mph45%29.90 "Hg20 mi
5:00 PM81 °FBroken clouds.10 mph42%29.91 "Hg20 mi
4:00 PM81 °FBroken clouds.12 mph39%29.91 "Hg20 mi
Weather by CustomWeather, © 2016

See weather overviewHow to use our weather pages